Weather History for Pine River, MN

Change the Weather History Date:

Wednesday, October 17, 2012

  Actual Average Record
Temperature  
Mean Temperature 48 °F -  
Max Temperature 51 °F 51 °F 64 °F (1997)
Min Temperature 44 °F 33 °F 23 °F (2003)
Degree Days  
Heating Degree Days 18    
Moisture  
Dew Point 46 °F    
Average Humidity 90    
Maximum Humidity 100    
Minimum Humidity 76    
Precipitation  
Precipitation 0.11 in - - ()
Sea Level Pressure  
Sea Level Pressure 29.23 in    
Wind  
Wind Speed 4 mph (SSE)    
Max Wind Speed 10 mph    
Max Gust Speed 17 mph    
Visibility 8 miles    
Events Rain    
Averages and records for this station are not official NWS values.
T = Trace of Precipitation, MM = Missing Value Source: NWS Daily Summary

Daily Weather History Graph

Daily Weather History Graph

Search for Another Location

Airport:

Trip Planner

Search our weather history database for the weather conditions in past years. The results will help you decide how hot, cold, wet, or windy it might be!

Date:

Astronomy

Oct. 17, 2012 Rise Set
Actual Time 7:38 AM CDT 6:25 PM CDT
Civil Twilight 7:08 AM CDT 6:56 PM CDT
Nautical Twilight 6:32 AM CDT 7:31 PM CDT
Astronomical Twilight 5:57 AM CDT 8:06 PM CDT
Moon 10:25 AM CDT (10/17) 7:50 PM CDT (10/17)
Length of Visible Light 11h 48m
Length of Day
10h 47m
Waxing Crescent, 7% of the Moon is Illuminated
Oct 17
Waxing Crescent
Oct 21
First Quarter
Oct 29
Full
Nov 6
Last Quarter
Nov 13
New

Hourly Weather History & Observations

Time (CDT) Temp. Windchill Dew Point Humidity Pressure Visibility Wind Dir Wind Speed Gust Speed Precip Events Conditions
12:13 AM 51.8 °F - 44.6 °F 76% 29.39 in 10.0 mi Calm Calm - N/A   Clear
12:32 AM 50.0 °F - 44.6 °F 82% 29.39 in 10.0 mi Calm Calm - N/A   Clear
12:53 AM 48.2 °F - 44.6 °F 87% 29.38 in 10.0 mi Calm Calm - N/A   Clear
1:13 AM 48.2 °F - 44.6 °F 87% 29.38 in 10.0 mi ESE 3.5 mph - N/A   Clear
1:33 AM 48.2 °F - 44.6 °F 87% 29.37 in 10.0 mi Calm Calm - N/A   Clear
1:53 AM 48.2 °F - 44.6 °F 87% 29.37 in 10.0 mi ESE 4.6 mph - N/A   Mostly Cloudy
2:12 AM 48.2 °F - 44.6 °F 87% 29.36 in 10.0 mi SE 3.5 mph - N/A   Mostly Cloudy
2:33 AM 48.2 °F - 44.6 °F 87% 29.35 in 10.0 mi SE 4.6 mph - N/A   Scattered Clouds
2:53 AM 48.2 °F - 44.6 °F 87% 29.35 in 10.0 mi SSE 3.5 mph - N/A   Scattered Clouds
3:13 AM 48.2 °F - 44.6 °F 87% 29.34 in 10.0 mi SE 4.6 mph - N/A   Scattered Clouds
3:52 AM 48.2 °F - 44.6 °F 87% 29.32 in 10.0 mi SE 3.5 mph - N/A   Scattered Clouds
4:13 AM 48.2 °F - 44.6 °F 87% 29.32 in 10.0 mi SE 4.6 mph - N/A   Scattered Clouds
4:33 AM 50.0 °F - 46.4 °F 87% 29.31 in 10.0 mi SE 4.6 mph - N/A   Mostly Cloudy
4:53 AM 50.0 °F - 46.4 °F 87% 29.30 in 10.0 mi SE 3.5 mph - N/A   Mostly Cloudy
5:13 AM 50.0 °F - 46.4 °F 87% 29.29 in 10.0 mi ESE 5.8 mph - N/A   Scattered Clouds
5:33 AM 50.0 °F - 46.4 °F 87% 29.28 in 10.0 mi East 8.1 mph - N/A   Scattered Clouds
5:53 AM 50.0 °F - 46.4 °F 87% 29.26 in 10.0 mi East 4.6 mph - N/A Rain Light Rain
6:13 AM 50.0 °F - 46.4 °F 87% 29.26 in 10.0 mi ESE 3.5 mph - N/A   Overcast
6:32 AM 50.0 °F - 46.4 °F 87% 29.26 in 10.0 mi ESE 4.6 mph - N/A   Light Drizzle
6:52 AM 50.0 °F - 46.4 °F 87% 29.26 in 10.0 mi SSE 3.5 mph - N/A   Drizzle
7:12 AM 50.0 °F - 46.4 °F 87% 29.25 in 7.0 mi East 4.6 mph - N/A   Drizzle
7:33 AM 50.0 °F - 46.4 °F 87% 29.24 in 7.0 mi ESE 4.6 mph - N/A Rain Light Rain
7:53 AM 50.0 °F - 46.4 °F 87% 29.22 in 10.0 mi East 5.8 mph - 0.01 in Rain Light Rain
8:11 AM 48.2 °F - 46.4 °F 93% 29.21 in 7.0 mi East 6.9 mph - 0.01 in Rain Rain
8:33 AM 48.2 °F - 46.4 °F 93% 29.21 in 7.0 mi East 4.6 mph - 0.02 in   Drizzle
8:53 AM 48.2 °F - 46.4 °F 93% 29.21 in 5.0 mi East 3.5 mph - N/A Rain Light Rain
9:13 AM 48.2 °F - 46.4 °F 93% 29.21 in 5.0 mi East 4.6 mph - 0.01 in Rain Light Rain
9:33 AM 48.2 °F - 46.4 °F 93% 29.18 in 5.0 mi NE 3.5 mph - 0.01 in   Light Drizzle
9:53 AM 48.2 °F - 46.4 °F 93% 29.18 in 5.0 mi East 5.8 mph - 0.01 in Rain Light Rain
10:13 AM 48.2 °F - 46.4 °F 93% 29.16 in 4.0 mi ENE 8.1 mph - 0.05 in Rain Rain
10:33 AM 48.2 °F - 46.4 °F 93% 29.15 in 7.0 mi East 5.8 mph - 0.06 in Rain Light Rain
10:53 AM 48.2 °F - 46.4 °F 93% 29.14 in 7.0 mi East 8.1 mph - N/A   Overcast
11:13 AM 50.0 °F - 48.2 °F 94% 29.13 in 7.0 mi East 10.4 mph 16.1 mph N/A   Mostly Cloudy
11:33 AM 50.0 °F - 46.4 °F 87% 29.13 in 7.0 mi ESE 8.1 mph - N/A   Mostly Cloudy
11:53 AM 50.0 °F - 46.4 °F 87% 29.12 in 7.0 mi ESE 8.1 mph - N/A Rain Light Rain
12:12 PM 50.0 °F - 48.2 °F 94% 29.12 in 7.0 mi ESE 8.1 mph - N/A   Overcast
12:32 PM 50.0 °F - 48.2 °F 94% 29.12 in 10.0 mi SE 8.1 mph - N/A   Overcast
12:53 PM 51.8 °F - 48.2 °F 88% 29.11 in 7.0 mi ESE 6.9 mph - N/A   Overcast
1:12 PM 51.8 °F - 48.2 °F 88% 29.11 in 10.0 mi SE 5.8 mph - N/A   Overcast
1:32 PM 51.8 °F - 48.2 °F 88% 29.12 in 10.0 mi South 3.5 mph - N/A   Overcast
1:53 PM 51.8 °F - 48.2 °F 88% 29.11 in 3.0 mi South 5.8 mph - N/A   Drizzle
2:13 PM 51.8 °F - 50.0 °F 94% 29.12 in 2.5 mi SSW 5.8 mph - N/A   Heavy Drizzle
2:33 PM 51.8 °F - 48.2 °F 88% 29.13 in 2.0 mi WSW 10.4 mph 17.3 mph 0.01 in   Drizzle
2:52 PM 50.0 °F - 48.2 °F 94% 29.14 in 2.5 mi WSW 8.1 mph - N/A   Drizzle
3:12 PM 50.0 °F - 48.2 °F 94% 29.15 in 3.0 mi WSW 8.1 mph - N/A   Overcast
3:33 PM 50.0 °F - 46.4 °F 87% 29.16 in 10.0 mi WSW 6.9 mph 16.1 mph N/A   Overcast
3:53 PM 50.0 °F - 46.4 °F 87% 29.16 in 10.0 mi WSW 6.9 mph - N/A   Overcast
4:12 PM 50.0 °F - 46.4 °F 87% 29.17 in 10.0 mi WSW 5.8 mph - N/A   Overcast
4:33 PM 51.8 °F - 46.4 °F 82% 29.18 in 10.0 mi SW 8.1 mph 16.1 mph N/A   Overcast
4:52 PM 50.0 °F - 46.4 °F 87% 29.19 in 10.0 mi SW 9.2 mph - N/A   Overcast
5:12 PM 50.0 °F - 46.4 °F 87% 29.19 in 10.0 mi SW 4.6 mph - N/A   Overcast
5:32 PM 50.0 °F - 44.6 °F 82% 29.19 in 10.0 mi SSW 8.1 mph - N/A   Overcast
5:53 PM 50.0 °F - 44.6 °F 82% 29.21 in 7.0 mi SSW 4.6 mph - N/A Rain Light Rain
6:13 PM 48.2 °F - 46.4 °F 93% 29.21 in 10.0 mi WSW 6.9 mph - N/A   Overcast
6:33 PM 48.2 °F - 46.4 °F 93% 29.22 in 10.0 mi SW 6.9 mph - N/A   Overcast
6:53 PM 48.2 °F - 44.6 °F 87% 29.23 in 10.0 mi SW 6.9 mph - N/A   Overcast
7:13 PM 46.4 °F 42.4 °F 44.6 °F 93% 29.23 in 10.0 mi SW 8.1 mph - N/A   Overcast
7:32 PM 46.4 °F 42.4 °F 44.6 °F 93% 29.24 in 4.0 mi SW 8.1 mph 17.3 mph N/A   Drizzle
7:53 PM 44.6 °F 41.4 °F 44.6 °F 100% 29.25 in 5.0 mi SW 5.8 mph - N/A   Overcast
8:13 PM 44.6 °F 40.2 °F 42.8 °F 93% 29.26 in 10.0 mi SW 8.1 mph - N/A   Overcast
8:32 PM 44.6 °F 42.2 °F 42.8 °F 93% 29.26 in 7.0 mi SW 4.6 mph - N/A   Overcast
8:53 PM 44.6 °F 41.4 °F 42.8 °F 93% 29.26 in 10.0 mi SW 5.8 mph - N/A   Overcast
9:13 PM 44.6 °F 43.1 °F 42.8 °F 93% 29.25 in 10.0 mi SW 3.5 mph - N/A   Overcast
9:32 PM 44.6 °F 42.2 °F 42.8 °F 93% 29.26 in 10.0 mi SSW 4.6 mph - N/A   Overcast
9:51 PM 44.6 °F 43.1 °F 42.8 °F 93% 29.26 in 10.0 mi SSW 3.5 mph - N/A   Overcast
10:13 PM 44.6 °F 42.2 °F 42.8 °F 93% 29.25 in 10.0 mi SW 4.6 mph - N/A   Overcast
10:33 PM 44.6 °F 40.7 °F 42.8 °F 93% 29.25 in 10.0 mi SW 6.9 mph - N/A   Overcast
10:51 PM 44.6 °F 41.4 °F 42.8 °F 93% 29.25 in 10.0 mi SSW 5.8 mph - N/A   Overcast
11:13 PM 44.6 °F - 42.8 °F 93% 29.25 in 10.0 mi Calm Calm - N/A   Overcast
11:32 PM 44.6 °F 43.1 °F 42.8 °F 93% 29.23 in 10.0 mi SW 3.5 mph - N/A   Overcast
11:53 PM 44.6 °F 43.1 °F 42.8 °F 93% 29.23 in 10.0 mi SW 3.5 mph - N/A   Overcast